Date,TemperatureHighF,TemperatureAvgF,TemperatureLowF,DewpointHighF,DewpointAvgF,DewpointLowF,HumidityHigh,HumidityAvg,HumidityLow,PressureMaxIn,PressureMinIn,WindSpeedMaxMPH,WindSpeedAvgMPH,GustSpeedMaxMPH,PrecipitationSumIn
2013-2-2,62.2,56.3,54.1,44.9,40.2,37.2,71,55,41,30.24,30.18,2,0,4,0.00
2013-2-3,72.5,57.1,46.2,47.2,34.3,-22.7,83,51,2,30.30,30.12,7,1,8,0.00
2013-2-4,53.9,48.0,45.3,50.8,35.4,27.2,92,63,44,30.15,29.97,3,0,4,0.04
2013-2-5,72.3,56.0,52.5,60.3,52.9,49.9,97,90,57,30.06,29.94,4,0,6,0.00
2013-2-6,62.2,56.3,50.9,58.9,52.8,47.6,98,88,78,30.12,29.94,6,1,11,0.25
2013-2-7,68.5,58.1,53.2,59.3,54.2,49.9,98,88,62,29.97,29.83,7,1,13,1.08
2013-2-8,70.3,57.3,52.3,59.3,51.1,44.2,98,81,57,30.18,29.94,8,2,13,0.00
2013-2-9,53.0,52.5,51.8,45.0,44.3,43.7,74,74,73,30.18,30.12,4,2,8,0.00
2013-2-10,66.0,66.0,66.0,63.3,63.3,63.3,91,91,91,30.00,30.00,3,3,6,0.00
2013-2-11,65.8,60.1,52.5,64.3,57.9,49.9,98,93,79,30.15,29.94,11,2,15,1.25
2013-2-12,63.1,56.0,51.9,62.5,55.0,49.6,98,97,88,30.06,29.71,7,2,13,0.41
2013-2-13,59.9,50.0,0.0,49.9,40.8,33.5,89,71,47,30.12,29.88,9,2,14,0.00
2013-2-14,64.7,49.4,37.0,39.4,34.2,30.8,85,59,34,30.15,30.06,5,1,8,0.00
2013-2-15,68.9,52.6,38.3,41.1,34.0,29.5,77,52,32,30.21,30.06,7,2,11,0.00
2013-2-16,59.0,48.1,39.2,31.9,20.7,-13.5,53,37,6,30.33,30.18,12,3,15,0.00
2013-2-17,63.5,47.6,33.6,33.8,26.3,16.9,56,44,32,30.36,30.18,6,2,10,0.00
2013-2-18,62.4,53.6,42.8,58.6,45.6,30.1,95,75,56,30.21,29.94,7,2,15,0.29
2013-2-19,68.3,57.2,46.7,58.6,38.1,15.8,97,55,21,30.27,29.94,9,3,17,1.75
2013-2-20,61.5,49.5,40.8,33.5,25.5,20.0,53,40,26,30.27,30.00,7,2,12,0.00
2013-2-21,67.1,58.1,48.3,64.9,50.2,31.5,98,76,52,30.03,29.74,9,3,18,0.16
2013-2-22,66.0,61.2,54.3,64.3,46.4,40.5,96,60,44,30.00,29.83,6,2,10,0.38
2013-2-23,61.1,53.1,50.3,50.0,48.3,43.0,90,84,63,30.00,29.88,6,2,7,0.04
2013-2-24,70.8,56.0,43.7,55.6,47.0,38.7,97,74,45,29.97,29.74,6,2,9,0.83
2013-2-25,61.7,58.3,52.7,61.1,55.8,33.8,98,92,47,29.77,29.44,7,3,13,1.70
2013-2-26,61.5,51.1,42.9,37.7,31.6,25.7,64,47,38,29.94,29.59,9,3,12,0.00
2013-2-27,69.8,56.0,44.7,41.9,36.9,31.8,77,52,26,30.06,29.91,7,2,11,0.00
2013-2-28,53.2,47.2,43.3,31.5,26.5,24.7,53,45,36,30.18,30.06,7,2,10,0.00